• Join FlightAware (Why Join?)
  • Login
  • US Flag GB Flag 
21:20 EDT


 

Airport Tracker/Info


-or-


 

Live Flight TrackerFlight Track Log ✈ SWA738 ✈ 12-May-2013 ✈ KFLL - KBWI

Flight Track Log - Related Links

Times and Time Zones

All times are in EDT time to prevent confusion due to time zone crossing. See the SWA738 flight status page for this flight to view local times or setup timezone preferences in your user account.

Time Position Orientation Groundspeed Altitude Reporting Facility
EDT Latitude Longitude Course Direction KTS MPH feet Rate Location/Type
15:58 26.0750 -80.1344 82° East 136 157 900  Level Miami Center
15:59 26.0825 -80.0744 82° East 221 254 2,400 1,320 Climbing Miami Center
15:59 26.0917 -80.0378 74° East 255 293 3,000 2,400 Climbing Miami Center
16:00 26.1186 -79.9575 69° East 273 314 6,000 3,300 Climbing Miami Center
16:01 26.1453 -79.8725 71° East 285 328 9,600 2,940 Climbing Miami Center
16:02 26.1806 -79.7783 67° East 296 341 11,900 2,700 Climbing Miami Center
16:03 26.2408 -79.6897 53° Northeast 324 373 15,100 3,300 Climbing Miami Center
16:04 26.3036 -79.5844 56° Northeast 364 419 18,600 2,700 Climbing Miami Center
16:05 26.3283 -79.4808 75° East 374 430 20,600 2,100 Climbing Miami Center
16:06 26.4014 -79.3756 52° Northeast 393 452 22,900 2,100 Climbing Miami Center
16:07 26.5003 -79.3336 21° North 383 441 24,900 2,100 Climbing Miami Center
16:08 26.6244 -79.2781 22° Northeast 420 483 27,200 1,920 Climbing Miami Center
16:09 26.7294 -79.2361 20° North 434 499 28,800 1,440 Climbing Miami Center
16:10 26.8514 -79.1850 21° North 447 514 30,100 1,260 Climbing Miami Center
16:11 26.9756 -79.1361 19° North 457 526 31,400 1,860 Climbing Miami Center
16:12 27.1081 -79.0781 21° North 467 537 33,900 1,980 Climbing Miami Center
16:13 27.2192 -79.0428 16° North 462 532 35,400 1,260 Climbing Miami Center
16:14 27.3428 -79.0219 North 456 525 36,500 1,200 Climbing Miami Center
16:15 27.4808 -79.0011 North 449 517 37,800 1,080 Climbing Miami Center
16:16 27.6064 -78.9847 North 449 517 38,700 600 Climbing Miami Center
16:17 27.7256 -78.9658 North 456 525 39,000 120 Climbing Miami Center
16:18 27.8492 -78.9469 North 461 531 39,000  Level Miami Center
16:19 27.9850 -78.9281 North 455 524 39,000  Level Miami Center
16:20 28.1086 -78.9069 North 449 517 39,000  Level Miami Center
16:21 28.2342 -78.8881 North 449 517 39,000  Level Miami Center
16:22 28.3617 -78.8667 North 449 517 39,000  Level Miami Center
16:23 28.4850 -78.8475 North 449 517 39,000  Level Miami Center
16:24 28.6044 -78.8308 North 449 517 39,000  Level Miami Center
16:25 28.7319 -78.8117 North 443 510 39,000  Level Miami Center
16:26 28.8553 -78.7925 North 448 516 39,000  Level Miami Center
16:27 28.9786 -78.7733 North 448 516 39,000  Level Miami Center
16:28 29.1042 -78.7542 North 448 516 39,000  Level Miami Center
16:29 29.2294 -78.7350 North 448 516 39,000  Level Miami Center
16:30 29.3550 -78.7181 North 448 516 39,000  Level Miami Center
16:31 29.4761 -78.6939 10° North 443 510 39,000  Level Miami Center
16:32 29.5994 -78.6722 North 438 504 39,000  Level Miami Center
16:35 29.8736 -78.6244 North 452 520 39,000  Level Jacksonville Center
16:36 30.0047 -78.6117 North 457 526 39,000  Level Jacksonville Center
16:37 30.1269 -78.5869 10° North 457 526 39,000  Level Jacksonville Center
16:38 30.2536 -78.5669 North 457 526 39,000  Level Jacksonville Center
16:39 30.3761 -78.5469 North 457 526 39,000  Level Jacksonville Center
16:40 30.5047 -78.5264 North 455 524 39,000  Level Jacksonville Center
16:41 30.6439 -78.5033 North 468 539 39,000  Level Jacksonville Center
16:42 30.7706 -78.4831 North 461 531 39,000  Level Jacksonville Center
16:43 30.8972 -78.4625 North 461 531 39,000  Level Jacksonville Center
16:44 31.0217 -78.4422 North 461 531 39,000  Level Jacksonville Center
16:45 31.1525 -78.4214 North 461 531 39,000  Level Jacksonville Center
16:46 31.2772 -78.4056 North 466 536 39,000  Level Jacksonville Center
16:47 31.4078 -78.3800 North 466 536 39,000  Level Jacksonville Center
16:48 31.5383 -78.3567 North 466 536 39,000  Level Jacksonville Center
16:49 31.6672 -78.3356 North 461 531 39,000  Level Jacksonville Center
16:50 31.7939 -78.3197 North 466 536 39,000  Level Jacksonville Center
16:51 31.9244 -78.2936 10° North 466 536 39,000  Level Jacksonville Center
16:52 32.0572 -78.2697 North 466 536 39,000  Level Jacksonville Center
16:53 32.1839 -78.2511 North 466 536 39,000  Level Jacksonville Center
16:54 32.3142 -78.2200 11° North 468 539 39,000  Level Jacksonville Center
16:55 32.4450 -78.2008 North 468 539 39,000  Level Jacksonville Center
16:56 32.5714 -78.1819 North 463 533 39,000  Level Jacksonville Center
16:57 32.7019 -78.1556 10° North 463 533 39,000  Level Jacksonville Center
16:59 32.9542 -78.1178 North 448 516 39,000  Level Washington Center
17:00 33.0778 -78.0942 North 442 509 39,000  Level Washington Center
17:01 33.2053 -78.0756 North 447 514 39,000  Level Washington Center
17:02 33.3308 -78.0519 North 447 514 39,000  Level Washington Center
17:03 33.4564 -78.0308 North 434 499 39,000 -60 Level Washington Center
17:04 33.5819 -78.0094 North 451 519 38,900 -60 Descending Washington Center
17:05 33.7078 -77.9883 North 448 516 38,900  Level Washington Center
17:06 33.8311 -77.9667 North 448 516 39,000  Climbing Washington Center
17:07 33.9464 -77.9475 North 436 502 39,000  Level Washington Center
17:08 34.0697 -77.9233 North 441 507 39,000  Level Washington Center
17:09 34.1869 -77.9042 North 441 507 39,000  Level Washington Center
17:10 34.3106 -77.8850 North 436 502 39,000  Level Washington Center
17:11 34.4319 -77.8683 North 436 502 39,000  Level Washington Center
17:12 34.5531 -77.8539 North 441 507 39,000  Level Washington Center
17:13 34.6744 -77.8447 North 441 507 39,000  Level Washington Center
17:14 34.7956 -77.8328 North 441 507 39,000  Level Washington Center
17:15 34.9169 -77.8133 North 441 507 39,000  Level Washington Center
17:16 35.0444 -77.7992 North 447 514 39,000 -540 Level Washington Center
17:17 35.1631 -77.8203 352° North 434 499 38,000 -960 Descending Washington Center
17:18 35.2839 -77.8336 355° North 434 499 37,100 -540 Descending Washington Center
17:19 35.4044 -77.8497 354° North 434 499 37,000 -300 Descending Washington Center
17:20 35.5231 -77.8633 355° North 434 499 36,600 -660 Descending Washington Center
17:21 35.6442 -77.8719 357° North 429 494 35,700 -960 Descending Washington Center
17:22 35.7672 -77.8703 North 429 494 34,700 -1,020 Descending Washington Center
17:23 35.8900 -77.8789 357° North 439 505 33,700 -1,020 Descending Washington Center
17:24 36.0131 -77.8878 357° North 439 505 32,700 -1,020 Descending Washington Center
17:25 36.1361 -77.8939 358° North 439 505 31,700 -1,800 Descending Washington Center
17:26 36.2600 -77.8458 17° North 446 513 29,100 -1,380 Descending Washington Center
17:27 36.3903 -77.7928 18° North 458 527 29,000 -60 Descending Washington Center
17:28 36.5144 -77.7369 20° North 464 534 29,000  Level Washington Center
17:29 36.6447 -77.6836 18° North 470 541 29,000 -480 Level Washington Center
17:30 36.7708 -77.6300 19° North 470 541 28,100 -1,080 Descending Washington Center
17:31 36.8992 -77.5761 19° North 475 547 26,900 -900 Descending Washington Center
17:32 37.0292 -77.5222 18° North 480 552 26,300 -480 Descending Washington Center
17:33 37.1633 -77.4839 13° North 485 558 26,000 -180 Descending Washington Center
17:34 37.2975 -77.4481 12° North 485 558 26,000 -480 Level Washington Center
17:35 37.4294 -77.4094 13° North 485 558 25,100 -1,020 Descending Washington Center
17:36 37.5594 -77.3733 12° North 480 552 24,000 -1,080 Descending Washington Center
17:37 37.6872 -77.3369 13° North 474 545 23,000 -540 Descending Washington Center
17:38 37.8108 -77.3003 13° North 464 534 23,000 -600 Level Washington Center
17:39 37.9364 -77.2664 12° North 459 528 21,800 -1,620 Descending Washington Center
17:40 38.0578 -77.2347 12° North 453 521 19,800 -2,040 Descending Washington Center
17:41 38.1792 -77.2003 13° North 453 521 17,800 -1,860 Descending Washington Center
17:42 38.2903 -77.1631 15° North 434 499 16,200 -1,440 Descending Washington Center
17:43 38.3928 -77.1228 17° North 412 474 15,000 -1,620 Descending Washington Center
17:44 38.4753 -77.0292 42° Northeast 387 445 13,000 -1,800 Descending Washington Center
17:45 38.5514 -76.9350 44° Northeast 382 440 11,400 -1,380 Descending Washington Center
17:46 38.6233 -76.8458 44° Northeast 365 420 10,300 -1,020 Descending Washington Center
17:47 38.6844 -76.7697 44° Northeast 332 382 9,400 -960 Descending Washington Center
17:48 38.7333 -76.6856 53° Northeast 309 356 8,400 -1,320 Descending Washington Center
17:49 38.7833 -76.5833 58° Northeast 293 337 6,900 -1,200 Descending Potomac TRACON
17:50 38.8333 -76.5333 38° Northeast 256 295 6,000 -1,200 Descending Potomac TRACON
17:51 38.9000 -76.5500 349° North 250 288 4,500 -1,260 Descending Potomac TRACON
17:52 38.9667 -76.5667 349° North 229 264 3,700 -960 Descending Potomac TRACON
17:53 39.0167 -76.5833 345° North 206 237 2,600 -1,080 Descending Potomac TRACON
17:53 39.0667 -76.6000 345° North 182 209 1,700 -600 Descending Potomac TRACON
17:55 39.1167 -76.6167 346° North 144 166 1,500 -480 Descending Potomac TRACON
17:56 39.1333 -76.6333 322° Northwest 122 140 800 -720 Descending Potomac TRACON
17:58 39.1667 -76.6667 339° North  Level FlightAware Approximate
18:05 39.1754 -76.6683 339° North  Level Estimated
18:06 39.1754 -76.6683 339° North  Level Estimated
18:07 39.1754 -76.6683 339° North  Level Estimated
18:08 39.1754 -76.6683 339° North  Level Estimated
18:09 39.1754 -76.6683 339° North  Level Estimated